Location: Kouchibouguac National Park
(46.8081°N, 64.9088°W)
Time: 18:16:38
(UTC-04:00)

Daily predictions for brighter satellites

Satellite Brightness Start Highest point End
(mag) Time Altitude Azimuth Time Altitude Azimuth Time Altitude Azimuth
CSL-04 Debris 4.2 16:58:15 10° SSE 17:03:39 86° ENE 17:09:06 10° NNW
CZ-3A R/B 4.4 16:40:39 10° WSW 17:05:23 78° NNW 17:11:01 10° NE
Cosmos 494 Rocket 4.2 17:00:53 10° NNW 17:06:10 82° WSW 17:11:26 10° SSE
Cosmos 1844 Rocket 3.0 17:01:52 10° SW 17:07:27 70° WNW 17:13:07 10° NNE
ERBS 4.1 17:08:56 10° NNW 17:11:20 18° NNE 17:13:43 10° ENE
Cosmos 1484 Rocket 4.2 17:09:41 10° ESE 17:12:00 16° ENE 17:14:19 10° NNE
SL-8 Rocket 4.1 17:06:55 10° N 17:13:07 86° W 17:19:17 10° S
Ariane Rocket 3.9 17:09:52 10° S 17:14:49 54° W 17:19:48 10° NNW
SMAP 3.3 17:10:36 10° SE 17:15:02 46° ENE 17:19:29 10° N
CORIOLIS 4.4 17:11:01 10° SE 17:16:09 47° ENE 17:21:17 10° N
Cosmos 1975 2.9 17:15:20 10° N 17:19:21 55° ENE 17:23:18 10° SSE
EO 1 Del DPAF 4.2 17:16:54 10° N 17:20:41 50° WNW 17:24:27 10° SSW
Meteor 1-12 Rocket 4.3 17:21:16 10° N 17:27:07 86° E 17:33:03 10° S
Cosmos 2366 rocket 4.1 17:20:52 10° N 17:27:16 89° E 17:33:33 10° S
MOS 1 4.3 17:21:46 10° SSE 17:27:22 69° ENE 17:33:00 10° N
CZ-3B DEB 2.2 17:24:14 10° SW 17:27:54 80° SE 17:36:45 12° ENE
Cosmos 1812 2.7 17:26:04 10° S 17:29:55 85° E 17:33:49 10° N
MSX 4.0 17:25:55 10° SE 17:31:26 50° ENE 17:36:57 10° N
SPOT 3 Rocket 3.5 17:28:05 10° SSE 17:33:15 73° ENE 17:38:25 10° N
CZ-4 R/B 1.4 17:29:06 10° SSE 17:33:15 86° ENE 17:37:22 10° NNW
Tiangong 1 2.4 17:32:28 10° SW 17:35:12 30° SSE 17:37:38 12° ESE
ISS -2.3 17:32:54 10° WNW 17:35:59 35° N 17:38:07 17° NE
USA 32 4.3 17:31:22 10° S 17:36:34 74° W 17:41:49 10° N
COSMOS 2487 2.6 17:33:16 10° NNW 17:36:53 78° WSW 17:40:27 10° SSE
Cosmos 2218 Rocket 4.4 17:32:43 10° NNW 17:38:57 67° W 17:45:04 10° S
USA 116 4.4 17:33:58 10° NNE 17:39:20 66° E 17:44:22 10° S
NOSS 2-1 (D) 4.3 17:36:00 10° S 17:39:25 31° ESE 17:42:01 17° ENE
NOSS 2-1 (C) 4.3 17:36:40 10° S 17:40:07 31° ESE 17:42:40 17° ENE
Cosmos 1844 4.4 17:35:08 10° SW 17:40:33 53° WNW 17:46:01 10° NNE
AQUARIUS 4.1 17:36:56 10° SSE 17:41:25 82° ENE 17:45:56 10° NNW
Cosmos 2297 3.8 17:40:00 10° S 17:45:29 57° ESE 17:50:42 11° NE
Meteor 2-14 Rocket 4.5 17:42:03 10° N 17:48:07 57° ENE 17:54:08 10° SSE
Cosmos 1190 Rocket 4.5 17:47:14 10° N 17:52:07 37° ENE 17:56:55 10° SE
COSMO-SKYMED 1 3.3 17:50:50 16° NE 17:53:38 31° E 17:57:30 10° SSE
Cosmos 2278 Rocket 2.6 17:48:16 10° SW 17:53:53 66° WNW 17:59:32 10° NNE
GEOS 3 Rocket 4.2 17:55:02 17° E 17:58:19 35° NE 18:02:57 10° NNW
NOSS 2-1 (E) 3.9 17:55:01 10° SSW 17:58:43 43° ESE 18:00:52 24° ENE
Cosmos 1821 Rocket 4.0 17:54:29 10° N 18:00:27 53° ENE 18:06:24 10° SSE
Cosmos 921 Rocket 3.0 17:57:09 10° S 18:01:22 62° ESE 18:04:42 16° NNE
Cosmos 1666 3.2 17:58:24 10° N 18:02:01 36° ENE 18:05:37 10° SE
Thor Agena Rocket 3.6 17:57:48 10° NNE 18:03:03 87° WNW 18:08:20 10° SSW
Cosmos 1025 Rocket 3.6 17:59:10 10° SSE 18:03:10 36° E 18:05:30 21° NE
IDEFIX/ARIANE 42P 3.0 17:59:23 10° S 18:04:32 64° WSW 18:09:42 10° NNW
Intercosmos 25 2.7 18:02:31 10° N 18:05:43 73° E 18:09:05 10° SSE
Okean 1 4.2 18:03:01 10° SSW 18:06:59 52° WNW 18:10:59 10° N
Cosmos 1833 Rocket 2.8 18:01:44 10° NNW 18:07:25 80° WSW 18:13:01 10° SSE
Cosmos 1238 Rocket 4.5 18:06:08 10° SW 18:08:46 26° WNW 18:11:39 10° NNW
Cosmos 1346 Rocket 3.0 18:06:28 10° SSW 18:10:20 67° WNW 18:14:13 10° N
Cosmos 1605 Rocket 4.4 18:05:15 10° N 18:11:06 38° ENE 18:16:49 10° SE
USA 234 3.3 18:08:52 21° ENE 18:13:27 73° SE 18:19:58 10° SW
Meteor 2-21 Rocket 4.5 18:07:18 10° N 18:13:32 86° W 18:19:41 10° S
Meteor 2-16 Rocket 4.3 18:07:42 10° N 18:13:50 80° E 18:19:56 10° SSE
ASTRO F (AKARI) 4.1 18:13:33 30° NNE 18:15:00 81° ESE 18:18:10 10° SSW
Cosmos 2082 Rocket 2.8 18:11:04 10° NNW 18:16:38 59° WSW 18:22:12 10° S
YAOGAN 1 3.8 18:16:03 10° S 18:20:10 43° W 18:24:20 10° NNW
Cosmos 2058 Rocket 3.9 18:16:05 10° N 18:25:46 - SSE 18:19:08 30° NE
Cosmos 1743 3.2 18:22:09 10° NNW 18:26:01 62° W 18:29:49 10° S
CZ-2C R/B 4.0 18:23:02 10° SSW 18:27:45 39° W 18:32:36 10° NNW
Timation 1 Rocket 4.3 18:23:37 10° SSW 18:29:35 85° WNW 18:33:51 20° NNE
NOSS 3-4 (A) 3.8 18:23:09 10° NW 18:30:08 85° SW 18:37:34 10° SE
NOSS 3-4 (C) 3.8 18:23:15 10° NW 18:30:14 86° SW 18:37:40 10° SE
Meteor 1-28 Rocket 4.0 18:31:27 35° SE 18:31:27 35° SE 18:34:05 10° S
Nadezhda 3 Rocket 4.2 18:25:07 10° SSW 18:31:20 74° W 18:37:40 10° N
Meteor 1-19 Rocket 4.4 18:35:24 10° SSW 18:41:13 77° WNW 18:47:08 10° N
SKYMED 2 3.5 18:39:26 26° NNE 18:41:51 85° WNW 18:46:12 10° SSW
Cosmos 407 Rocket 3.3 18:37:23 10° NNW 18:42:33 78° ENE 18:47:42 10° SSE
SL-8 R/B 3.7 18:38:08 10° W 18:42:55 73° N 18:43:47 57° ENE
Cosmos 1484 Rocket 3.8 18:42:34 10° S 18:46:09 44° W 18:49:45 10° NNW
Cosmos 2056 Rocket 3.4 18:42:11 10° SSW 18:47:32 77° ESE 18:49:18 43° NNE
ERBS 3.8 18:45:22 10° NW 18:47:17 29° NNW 18:47:17 29° NNW
Cosmos 1727 Rocket 4.0 18:46:56 10° SSE 18:52:54 51° E 18:53:41 48° ENE
Cosmos 676 Rocket 3.8 18:48:44 10° NNW 18:53:57 71° ENE 18:55:05 53° SE
Meteor 2-9 Rocket 4.3 18:49:03 10° NNW 18:54:28 70° W 18:59:45 10° S
Meteor 1-15 Rocket 4.3 18:48:53 10° NNW 18:54:49 87° W 19:00:37 10° S
Cosmos 2369 Rocket 3.5 18:52:12 10° SSE 18:54:59 25° SSE 18:54:59 25° SSE
Okean 2 3.6 18:53:42 10° S 18:57:07 60° S 18:57:07 60° S
BREEZE-M R/B 3.6 18:49:07 10° WSW 18:58:13 75° NNW 18:59:08 60° NE
Cosmos 1954 Rocket 4.0 18:53:14 10° NNW 18:57:48 58° NNE 18:57:48 58° NNE
Cosmos 1892 Rocket 3.8 18:55:07 10° S 18:58:40 58° S 18:58:40 58° S
Cosmos 1624 Rocket 4.0 18:55:11 10° SSW 19:00:22 79° WNW 19:02:04 44° N
NOAA 12 4.1 18:56:05 10° SSE 19:01:22 80° WSW 19:06:39 10° NNW
Cosmos 1726 Rocket 3.8 18:58:25 10° NNW 19:02:52 67° W 19:07:18 10° S
Meteor 1-23 Rocket 4.3 18:58:10 10° SSW 19:03:50 78° WNW 19:07:33 22° N
Meteor 2-4 Rocket 3.9 19:00:01 10° SSW 19:05:19 66° WNW 19:09:04 20° N
Tiangong 1 3.8 19:08:14 10° WSW 19:09:19 18° WSW 19:09:19 18° WSW
Meteor 2-8 Rocket 4.5 19:05:31 10° SSW 19:11:36 77° W 19:17:04 14° N
ISS -0.7 19:09:45 10° WNW 19:10:48 18° NW 19:10:48 18° NW
BREEZE-M DEB (TANK) 4.5 19:12:00 10° WNW 19:15:38 39° WNW 19:15:38 39° WNW
COSMO-SKYMED 1 4.4 19:28:03 22° NNW 19:29:44 29° WNW 19:33:28 10° SW
GEOS 3 Rocket 4.0 19:36:10 56° SW 19:36:12 56° SW 19:41:16 10° NW
USA 234 3.7 19:56:14 50° NNW 19:56:18 50° NNW 20:02:33 10° W
CZ-3B DEB 3.9 19:56:45 10° WNW 20:03:10 54° N 20:04:32 52° NNE
